GOES 3 [P]

Last updated on Tue Jun 28 2016 01:37:54 GMT+0000 (Coordinated Universal Time)

1 10953U 78062A 16179.59593750 .00000042 00000-0 00000+0 0 9993 2 10953 13.8315 335.0301 0003461 215.1865 181.0594 0.99530296 92415

Satellite not in orbit

GOES 3 [P]